This demonstration page uses our WeatherBlox Daily Observations layout. Learn more.

Left ArrowRight Arrow

Hourly Observations for April 23, 2015

Temp ( °F °C ) Dew Point ( °F °C ) Humidity (%) Winds ( mph kmh ) Pressure ( in mb ) Visibility ( mi km ) Precip ( " mm )
12:16 am 00:16 Clear 39 4 16 -9 39 39 WNW 5 7 29.97 1015 10 16.0934 N/A
12:36 am 00:36 Clear 34 1 23 -5 65 65 W 3 6 30 1016 10 16.0934 N/A
12:56 am 00:56 Clear 36 2 23 -5 60 60 WSW 3 6 30 1016 10 16.0934 N/A
1:15 am 01:15 Clear 34 1 23 -5 65 65 WSW 5 7 30 1016 10 16.0934 N/A
1:36 am 01:36 Clear 36 2 23 -5 60 60 SW 5 7 30 1016 10 16.0934 N/A
1:56 am 01:56 Clear 36 2 21 -6 56 56 SW 6 9 30 1016 10 16.0934 N/A
2:15 am 02:15 Clear 36 2 21 -6 56 56 SW 5 7 30 1016 10 16.0934 N/A
2:36 am 02:36 Clear 34 1 21 -6 60 60 WSW 7 11 30 1016 10 16.0934 N/A
2:56 am 02:56 Clear 36 2 21 -6 56 56 SW 6 9 30 1016 10 16.0934 N/A
3:15 am 03:15 Clear 36 2 19 -7 52 52 SW 7 11 29.97 1015 10 16.0934 N/A
3:36 am 03:36 Clear 36 2 19 -7 52 52 SW 7 11 30 1016 10 16.0934 N/A
3:56 am 03:56 Clear 36 2 19 -7 52 52 SW 6 9 30 1016 10 16.0934 N/A
4:16 am 04:16 Clear 36 2 18 -8 48 48 WSW 6 9 30 1016 10 16.0934 N/A
4:36 am 04:36 Clear 34 1 18 -8 51 51 WSW 6 9 30 1016 10 16.0934 N/A
4:56 am 04:56 Clear 34 1 18 -8 51 51 SW 7 11 30 1016 10 16.0934 N/A
5:16 am 05:16 Clear 34 1 16 -9 48 48 WSW 7 11 30 1016 10 16.0934 N/A
5:36 am 05:36 Clear 34 1 18 -8 51 51 W 8 13 30 1016 10 16.0934 N/A
5:56 am 05:56 Clear 32 0 18 -8 55 55 W 9 15 30 1016 10 16.0934 N/A
6:16 am 06:16 Clear 32 0 18 -8 55 55 W 9 15 30.03 1017 10 16.0934 N/A
6:36 am 06:36 Clear 34 1 16 -9 48 48 W 9 15 30.03 1017 10 16.0934 N/A
6:56 am 06:56 Sunny 32 0 18 -8 55 55 W 8 13 30.03 1017 10 16.0934 N/A
7:16 am 07:16 Sunny 32 0 18 -8 55 55 W 8 13 30.03 1017 10 16.0934 N/A
7:36 am 07:36 Sunny 34 1 18 -8 51 51 W 7 11 30.06 1018 10 16.0934 N/A
7:56 am 07:56 Sunny 36 2 18 -8 48 48 W 8 13 30.06 1018 10 16.0934 N/A
8:16 am 08:16 Sunny 37 3 16 -9 41 41 WNW 9 15 30.03 1017 10 16.0934 N/A
8:36 am 08:36 Sunny 39 4 14 -10 36 36 WNW 9 15 30.03 1017 10 16.0934 N/A
8:56 am 08:56 Sunny 41 5 14 -10 33 33 WNW 10 17 30.03 1017 10 16.0934 N/A
9:16 am 09:16 Sunny 41 5 14 -10 33 33 NW 9 15 30.03 1017 10 16.0934 N/A
9:36 am 09:36 Sunny 43 6 16 -9 34 34 NW 8 13 30.03 1017 10 16.0934 N/A
9:56 am 09:56 Sunny 45 7 16 -9 31 31 WNW 9 15 30.03 1017 10 16.0934 N/A
10:16 am 10:16 Sunny 46 8 16 -9 29 29 NW 8 13 30.06 1018 10 16.0934 N/A
10:36 am 10:36 Sunny 46 8 16 -9 29 29 NW 10 17 30.06 1018 10 16.0934 N/A
10:56 am 10:56 Sunny 48 9 14 -10 25 25 WNW 12 19 30.06 1018 10 16.0934 N/A
11:16 am 11:16 Sunny 48 9 10 -12 21 21 WNW 15 24 30.06 1018 10 16.0934 N/A
11:36 am 11:36 Sunny 50 10 10 -12 20 20 WNW 12 19 30.06 1018 10 16.0934 N/A
11:55 am 11:55 Sunny 50 10 9 -13 19 19 WNW 13 20 30.06 1018 10 16.0934 N/A
12:16 pm 12:16 Sunny 50 10 7 -14 17 17 NW 15 24 30.06 1018 10 16.0934 N/A
12:36 pm 12:36 Sunny 50 10 5 -15 16 16 WNW 14 22 30.06 1018 10 16.0934 N/A
12:55 pm 12:55 Sunny 52 11 3 -16 13 13 NW 16 26 30.06 1018 10 16.0934 N/A
1:16 pm 13:16 Sunny 52 11 3 -16 13 13 W 16 26 30.06 1018 10 16.0934 N/A
1:36 pm 13:36 Sunny 52 11 3 -16 13 13 NW 13 20 30.06 1018 10 16.0934 N/A
1:55 pm 13:55 Sunny 52 11 1 -17 12 12 W 17 28 30.06 1018 10 16.0934 N/A
2:16 pm 14:16 Sunny 54 12 3 -16 13 13 NW 17 28 30.03 1017 10 16.0934 N/A
2:36 pm 14:36 Sunny 54 12 1 -17 12 12 W 9 15 30.03 1017 10 16.0934 N/A
2:55 pm 14:55 Sunny 54 12 3 -16 13 13 WNW 20 31 30.03 1017 10 16.0934 N/A
3:16 pm 15:16 Sunny 54 12 1 -17 12 12 WNW 14 22 30.03 1017 10 16.0934 N/A
3:36 pm 15:36 Sunny 54 12 1 -17 12 12 W 16 26 30.03 1017 10 16.0934 N/A
3:55 pm 15:55 Sunny 55 13 1 -17 11 11 WNW 16 26 30 1016 10 16.0934 N/A
4:16 pm 16:16 Sunny 55 13 0 -18 10 10 WNW 15 24 30 1016 10 16.0934 N/A
4:36 pm 16:36 Sunny 55 13 0 -18 10 10 WNW 21 33 30 1016 10 16.0934 N/A
4:55 pm 16:55 Sunny 55 13 -4 -20 8 8 NW 14 22 30.03 1017 10 16.0934 N/A
5:16 pm 17:16 Sunny 55 13 -2 -19 9 9 WNW 15 24 30.03 1017 10 16.0934 N/A
5:36 pm 17:36 Sunny 55 13 -4 -20 8 8 WNW 16 26 30.03 1017 10 16.0934 N/A
5:56 pm 17:56 Sunny 55 13 -2 -19 9 9 W 20 31 30.03 1017 10 16.0934 N/A
6:16 pm 18:16 Sunny 54 12 0 -18 11 11 WNW 13 20 30.03 1017 10 16.0934 N/A
6:36 pm 18:36 Sunny 54 12 0 -18 11 11 NW 16 26 30.03 1017 10 16.0934 N/A
6:56 pm 18:56 Sunny 54 12 -6 -21 8 8 WNW 18 30 30.03 1017 10 16.0934 N/A
7:16 pm 19:16 Sunny 52 11 -6 -21 9 9 NW 16 26 30.06 1018 10 16.0934 N/A
7:36 pm 19:36 Sunny 52 11 -4 -20 10 10 WNW 18 30 30.06 1018 10 16.0934 N/A
7:56 pm 19:56 Sunny 52 11 -4 -20 10 10 NW 13 20 30.06 1018 10 16.0934 N/A
8:16 pm 20:16 Sunny 50 10 -4 -20 10 10 WNW 13 20 30.06 1018 10 16.0934 N/A
8:36 pm 20:36 Clear 46 8 5 -15 18 18 NW 6 9 30.06 1018 10 16.0934 N/A
8:56 pm 20:56 Clear 45 7 7 -14 21 21 NW 7 11 30.06 1018 10 16.0934 N/A
9:16 pm 21:16 Clear 46 8 3 -16 17 17 NW 3 6 30.06 1018 10 16.0934 N/A
9:35 pm 21:35 Clear 43 6 16 -9 34 34 Calm 30.06 1018 10 16.0934 N/A
9:56 pm 21:56 Clear 43 6 12 -11 29 29 Calm 30.09 1019 10 16.0934 N/A
10:16 pm 22:16 Clear 39 4 19 -7 45 45 Calm 30.09 1019 10 16.0934 N/A
10:35 pm 22:35 Clear 41 5 19 -7 42 42 Calm 30.09 1019 10 16.0934 N/A
10:56 pm 22:56 Clear 41 5 23 -5 49 49 Calm 30.09 1019 10 16.0934 N/A
11:16 pm 23:16 Clear 37 3 27 -3 65 65 Calm 30.12 1020 10 16.0934 N/A
11:35 pm 23:35 Clear 37 3 27 -3 65 65 Calm 30.12 1020 10 16.0934 N/A
11:56 pm 23:56 Clear 37 3 27 -3 65 65 Calm 30.15 1021 10 16.0934 N/A

Powered by AerisWeather